Home > Weather > Pali > Past weeks

Flag for India Weather for the Past 2 Weeks in Pali, Rajasthan, India

Now
84 °F

Haze.


Feels Like: 82 °F
Forecast: 80 / 102 °F
Wind: 5 mph from South

Location: Jaipur / Sanganer

Current Time: May 4, 2016 at 7:32:41 AM

Latest Report: May 4, 2016 at 6:30 AM


Visibility: 2 mi

Pressure: 29.74 "Hg

Humidity: 29%

Dew Point: 48 °F

Location of PaliLocation

Historic Weather in Pali — Graph

°F

Pali Temperature Yesterday

Maximum temperature yesterday: 104 °F (at 3:30 PM)
Minimum temperature yesterday: 88 °F (at 7:00 AM)
Average temperature yesterday: 96 °F

High & Low Weather Summary for the Past Weeks

 TemperatureHumidityPressure
High108 °F (May 1, 1:00 PM)32% (Apr 21, 6:30 AM)29.92 "Hg (Apr 21, 6:30 AM)
Low75 °F (Apr 24, 6:30 AM)2% (Apr 24, 11:00 AM)29.59 "Hg (Apr 22, 5:00 PM)
Average93 °F13%29.75 "Hg
* Reported Apr 19 6:30 AM — May 4 6:30 AM, Pali, Weather by CustomWeather, © 2016

Note: Actual official high and low records may vary slightly from our data, if they occured in-between our weather recording intervals... More about our weather records

Advertising

Pali Weather History for the Previous 24 Hours

Scroll right to see more
 ConditionsComfort  
Time TempWeatherWind HumidityBarometerVisibility
6:30 AM
Wed, May 4
84 °FHaze.5 mph29%29.74 "Hg1 mi
6:00 AM86 °FHaze.2 mph27%29.71 "Hg1 mi
5:30 AM84 °FHaze.1 mph29%29.71 "Hg1 mi
2:30 AM86 °FHaze.3 mph24%29.71 "Hg1 mi
2:00 AM88 °FHaze.2 mph22%29.71 "Hg1 mi
11:30 PM
Tue, May 3
93 °FHaze.6 mph15%29.74 "Hg1 mi
11:00 PM91 °FHaze.No wind17%29.74 "Hg1 mi
10:30 PM93 °FHaze.1 mph15%29.74 "Hg1 mi
9:30 PM95 °FHaze.2 mph13%29.74 "Hg1 mi
9:00 PM95 °FHaze.1 mph13%29.71 "Hg1 mi
8:30 PM95 °FHaze.No wind13%29.71 "Hg1 mi
8:00 PM97 °FHaze.6 mph12%29.68 "Hg1 mi
7:30 PM99 °FHaze.8 mph10%29.68 "Hg1 mi
7:00 PM100 °FHaze.12 mph10%29.65 "Hg1 mi
6:30 PM102 °FPassing clouds.14 mph9%29.65 "Hg1 mi
6:00 PM104 °FScattered clouds.15 mph7%29.65 "Hg1 mi
5:30 PM104 °FScattered clouds.12 mph7%29.65 "Hg1 mi
5:00 PM104 °FScattered clouds.15 mph7%29.65 "Hg1 mi
4:30 PM104 °FScattered clouds.16 mph7%29.68 "Hg1 mi
4:00 PM104 °FScattered clouds.17 mph8%29.68 "Hg1 mi
3:30 PM104 °FScattered clouds.6 mph9%29.68 "Hg1 mi
2:00 PM102 °FHaze.7 mph11%29.74 "Hg1 mi
1:30 PM100 °FPartly sunny.7 mph12%29.74 "Hg1 mi
1:00 PM100 °FPartly sunny.8 mph14%29.77 "Hg1 mi
12:00 PM99 °FPartly sunny.6 mph18%29.80 "Hg1 mi
11:30 AM99 °FPartly sunny.10 mph18%29.80 "Hg1 mi
11:00 AM99 °FScattered clouds.9 mph19%29.80 "Hg1 mi
10:30 AM95 °FScattered clouds.9 mph23%29.80 "Hg1 mi
10:00 AM95 °FScattered clouds.9 mph25%29.80 "Hg1 mi
9:00 AM91 °FScattered clouds.7 mph26%29.80 "Hg1 mi
8:30 AM91 °FScattered clouds.8 mph26%29.80 "Hg1 mi
8:00 AM90 °FScattered clouds.5 mph27%29.77 "Hg1 mi
7:00 AM88 °FScattered clouds.1 mph25%29.74 "Hg1 mi
Weather by CustomWeather, © 2016

See weather overviewHow to use our weather pages